CAPE
771 800 666 580 507 522 320 215 109 76 57 3 140 453 445 562 856 1102 1118 1283 1476 1341 1298 1394 1181 1126 907 1059 1213 996 648 917 775 574 944 802 1102 1102 1138 1417 1370 1215 1095
827 818 673 633 482 400 299 308 236 87 105 255 458 783 792 830 1030 963 704 1081 1071 961 1044 1136 1033 1245 1426 1416 1017 771 606 634 584 647 891 904 1017 1031 1244 1235 1129 904 979
864 803 781 683 552 338 254 265 340 205 232 544 927 927 1002 1037 1051 1087 1048 1223 917 1023 1065 1296 1193 1141 1175 1099 1143 743 738 678 696 642 764 820 933 1032 1001 1090 1256 947 1096
845 745 750 750 697 551 359 255 163 122 118 363 781 912 961 1009 1032 1015 1005 1053 952 890 942 1084 1040 800 676 626 860 1145 904 792 956 976 816 648 649 776 1021 750 561 555 742
1046 949 937 916 985 919 671 476 398 359 318 482 654 822 997 1078 1032 977 954 872 772 813 803 579 535 374 323 302 592 1184 1156 986 834 711 557 553 566 519 583 606 681 761 736
1232 1157 1147 1127 1104 1023 1007 845 743 686 872 1044 1007 1036 955 984 761 495 854 928 679 525 550 582 686 486 413 264 218 252 636 1022 988 818 549 638 905 964 874 934 832 706 548
1459 1451 1218 1077 1162 1117 1115 1089 964 820 945 927 1074 1205 1106 1098 619 183 203 738 440 194 147 460 700 957 952 1140 892 451 356 222 290 571 611 559 603 903 817 503 417 448 369
1598 1604 1309 948 699 628 821 1006 970 1045 896 806 944 1091 1064 1024 583 78 55 408 513 40 58 245 583 822 1224 1169 1154 1228 1246 1021 402 199 252 282 91 5 3 2 2 3 2
1855 1833 1457 983 41 342 410 1049 1102 1122 992 733 654 695 686 763 485 126 336 1005 663 240 355 512 873 1226 1378 554 744 973 778 87 0 0 0 0 0 0 0 2 3 4 4
2040 2037 1800 1310 405 221 1016 1388 1607 1634 1383 1194 1170 1312 1272 1412 1162 744 600 1082 845 958 1136 460 88 371 96 11 566 883 617 111 1 0 0 0 0 0 0 4 6 2 2
2209 2259 2186 1873 1465 1093 1234 139 1023 1916 1751 1597 1476 1593 1796 1765 1587 445 399 1483 1314 1304 624 243 0 0 0 0 57 295 296 0 0 0 0 0 1 2 5 5 2 1 1
2325 2373 2369 2322 2232 1987 1556 1088 1292 1572 1923 1986 2005 1846 1655 1313 588 164 209 772 1130 1118 517 95 0 0 0 0 0 0 0 0 0 0 0 0 0 1 2 1 1 5 5
1845 2342 2431 2416 2413 2383 1842 1865 1564 2055 2058 1925 1664 1008 625 214 65 87 161 379 432 741 365 3 0 0 0 0 0 0 0 0 0 0 0 0 0 1 1 5 9 12 4
849 2058 2464 2371 2287 2283 2229 2323 2319 2072 2004 1690 1167 813 444 161 142 97 68 0 0 1 0 0 0 0 0 0 0 0 0 0 0 0 0 0 1 4 2 1 2 3 5
562 1418 1810 2079 1687 464 166 306 784 433 910 1671 1224 830 538 430 325 63 2 0 0 0 1 3 5 1 0 0 0 0 0 0 0 0 0 0 0 2 1 1 0 1 0
151 907 1068 667 407 431 62 4 0 0 23 220 667 892 599 410 41 0 0 0 0 0 0 1 2 1 0 0 0 0 0 0 0 0 0 0 0 1 1 1 1 1 2
3 574 598 747 764 301 1 6 0 0 0 3 100 163 142 70 0 0 0 0 0 0 1 2 0 0 0 0 0 0 0 0 0 0 0 0 0 0 0 1 4 5 6
15 6 559 837 901 386 84 15 0 0 0 47 0 0 0 0 0 0 0 0 0 0 1 0 0 0 0 0 0 4 16 0 0 0 0 1 4 4 4 1 2 4 7
50 192 332 707 934 719 55 0 1 26 126 205 0 0 0 0 0 0 0 0 0 0 0 0 0 1 5 11 15 18 23 4 0 1 4 3 6 4 4 6 2 0 0
451 244 524 908 750 753 232 95 48 53 375 95 103 105 0 0 0 0 0 2 3 1 2 1 9 12 10 8 8 16 14 0 0 1 4 2 3 5 3 5 10 1 1
473 400 371 589 847 667 99 16 64 169 360 202 97 6 0 39 12 0 0 3 2 13 14 17 18 12 11 12 13 11 7 8 5 3 0 0 2 1 1 4 10 7 0
369 290 344 307 423 512 316 68 255 316 328 208 127 0 0 1 5 1 3 3 2 2 9 5 5 9 12 10 8 23 7 0 0 0 0 0 0 0 0 0 2 6 8
268 91 193 201 277 206 87 38 105 261 191 138 25 0 0 0 0 0 0 0 0 0 0 2 6 18 6 6 21 26 0 0 0 0 0 0 0 2 4 5 8 4 3
203 1 2 2 37 4 48 13 45 105 131 127 6 0 0 0 0 0 0 0 0 0 7 11 23 59 59 62 66 69 44 57 65 61 42 11 1 1 0 4 5 2 2
105 29 52 19 3 5 1 24 26 167 121 18 0 0 0 0 0 0 0 0 0 17 32 34 26 40 80 88 100 100 39 9 58 30 114 106 73 49 33 21 24 27 33
162 72 72 2 5 8 22 33 112 155 82 35 33 45 46 9 12 1 0 0 2 23 37 48 66 87 92 66 6 0 0 0 0 0 0 41 90 95 97 91 86 70 51
CIN
-209 -210 -190 -182 -171 -123 -136 -143 -139 -105 -89 -29 -59 -40 -42 -38 -35 -32 -24 -15 -17 -20 -22 -22 -31 -33 -18 -10 -3 -12 -16 -8 -0 -1 -4 -16 -24 -25 -22 -35 -39 -36 -31
-256 -253 -228 -211 -200 -185 -176 -158 -148 -158 -99 -61 -40 -32 -33 -34 -36 -39 -35 -23 -21 -18 -18 -19 -26 -10 -17 -11 -13 -19 -18 -14 -10 -0 -2 -11 -17 -18 -16 -21 -21 -16 -17
-307 -288 -243 -213 -202 -201 -198 -181 -158 -154 -120 -50 -28 -31 -34 -33 -37 -43 -31 -25 -22 -25 -20 -16 -21 -14 -18 -11 -17 -18 -16 -12 -15 -1 -1 -1 -12 -14 -15 -19 -29 -24 -23
-352 -314 -251 -216 -196 -185 -196 -202 -198 -203 -169 -97 -47 -39 -38 -33 -42 -41 -38 -35 -33 -36 -43 -40 -34 -33 -39 -45 -24 -13 -9 -13 -8 -0 -1 -3 -7 -12 -1 -15 -15 -15 -11
-351 -335 -288 -240 -212 -182 -174 -186 -170 -158 -138 -96 -63 -50 -42 -40 -36 -43 -35 -32 -37 -41 -46 -63 -65 -72 -69 -76 -30 -8 -12 -10 -1 -1 -2 -4 -15 -15 -2 -2 -1 -3 -3
-356 -322 -315 -275 -223 -198 -154 -152 -159 -148 -107 -65 -56 -52 -56 -50 -60 -79 -41 -38 -54 -62 -72 -64 -54 -67 -75 -102 -109 -99 -49 -16 -6 -17 -26 -9 -2 -1 -1 -0 -1 -0 -0
-337 -284 -269 -280 -201 -164 -120 -118 -132 -147 -121 -94 -68 -42 -51 -61 -110 -132 -111 -65 -99 -130 -139 -90 -63 -34 -37 -31 -44 -87 -112 -140 -117 -58 -39 -40 -13 -0 -1 -7 -4 -0 -5
-291 -246 -279 -295 -266 -249 -154 -120 -148 -104 -131 -123 -90 -67 -64 -72 -109 -174 -170 -102 -115 -234 -181 -149 -92 -79 -26 -25 -23 -21 -11 -19 -86 -125 -76 -56 -25 -3 -0 -0 -0 -0 -0
-218 -191 -245 -279 -298 -170 -175 -113 -132 -152 -147 -155 -151 -127 -123 -117 -153 -183 -130 -59 -97 -160 -129 -98 -54 -29 -11 -86 -41 -18 -16 -128 -0 -0 -0 -0 -0 -0 -0 -0 -0 -0 -0
-138 -115 -122 -200 -302 -314 -170 -146 -50 -109 -115 -116 -105 -94 -90 -62 -79 -127 -133 -52 -61 -54 -32 -104 -197 -87 -159 -192 -44 -4 -7 -81 -0 -0 -0 -0 -0 -0 -0 -0 -0 -1 -0
-41 -64 -58 -70 -130 -187 -133 -225 -130 -22 -79 -94 -83 -65 -41 -42 -66 -181 -173 -39 -25 -29 -72 -106 -0 -0 -0 -0 -68 -17 -29 -0 -0 -0 -0 -0 -0 -0 -0 -0 -0 -0 -0
-19 -25 -55 -81 -44 -24 -92 -107 -47 -0 -56 -61 -47 -46 -53 -82 -182 -276 -231 -97 -43 -23 -62 -144 -0 -0 -0 -0 -0 -0 -0 -0 -0 -0 -0 -0 -0 -0 -0 -0 -0 -0 -0
-64 -18 -34 -41 -35 -1 -2 -6 -20 -14 -30 -58 -68 -81 -140 -240 -324 -324 -239 -139 -112 -37 -75 -14 -0 -0 -0 -0 -0 -0 -0 -0 -0 -0 -0 -0 -0 -0 -0 -0 -0 -0 -0
-240 -61 -26 -38 -45 -34 -9 -0 -3 -27 -49 -76 -89 -103 -167 -237 -241 -248 -237 -0 -0 -77 -0 -0 -0 -0 -0 -0 -0 -0 -0 -0 -0 -0 -0 -0 -0 -0 -0 -0 -1 -0 -0
-253 -115 -87 -51 -65 -269 -409 -327 -171 -159 -125 -58 -86 -109 -112 -134 -173 -237 -20 -0 -0 -0 -0 -0 -0 -0 -0 -0 -0 -0 -0 -0 -0 -0 -0 -0 -0 -0 -0 -0 -0 -0 -0
-283 -130 -192 -231 -269 -236 -325 -317 -0 -0 -336 -177 -98 -79 -135 -138 -264 -0 -0 -0 -0 -0 -0 -0 -0 -0 -0 -0 -0 -0 -0 -0 -0 -0 -0 -0 -0 -0 -0 -0 -0 -0 -0
-320 -168 -236 -142 -178 -232 -65 -299 -0 -0 -0 -433 -231 -180 -204 -188 -0 -0 -0 -0 -0 -0 -0 -0 -0 -0 -0 -0 -0 -0 -0 -0 -0 -0 -0 -0 -0 -0 -0 -1 -0 -0 -0
-251 -118 -146 -118 -107 -252 -357 -294 -0 -0 -0 -346 -0 -0 -0 -0 -0 -0 -0 -0 -0 -0 -1 -0 -0 -0 -0 -0 -0 -1 -1 -0 -4 -0 -0 -1 -0 -1 -0 -1 -1 -1 -1
-244 -185 -197 -161 -94 -142 -359 -0 -301 -597 -368 -275 -0 -0 -0 -0 -0 -0 -0 -0 -0 -0 -0 -0 -0 -0 -1 -1 -0 -0 -0 -5 -0 -1 -1 -1 -1 -0 -0 -1 -1 -0 -0
-152 -237 -147 -67 -91 -57 -244 -329 -388 -366 -144 -297 -232 -331 -0 -0 -0 -0 -0 -0 -0 -0 -0 -0 -0 -167 -0 -0 -1 -0 -1 -0 -0 -0 -1 -1 -1 -1 -1 -1 -1 -2 -0
-80 -65 -73 -38 -10 -35 -222 -290 -274 -174 -92 -103 -126 -156 -0 -390 -428 -0 -0 -0 -0 -0 -0 -0 -0 -0 -1 -0 -1 -0 -1 -1 -1 -0 -0 -0 -1 -1 -1 -1 -1 -1 -2
-56 -52 -36 -45 -17 -5 -39 -133 -48 -45 -34 -51 -88 -0 -0 -13 -244 -0 -0 -0 -0 -0 -0 -1 -0 -1 -0 -1 -1 -1 -1 -0 -0 -0 -0 -0 -0 -0 -0 -0 -1 -1 -1
-49 -65 -30 -30 -4 -8 -36 -71 -24 -6 -31 -27 -138 -0 -0 -0 -0 -0 -0 -0 -0 -0 -0 -0 -0 -0 -0 -3 -1 -1 -0 -0 -0 -0 -0 -0 -0 -2 -1 -1 -1 -1 -1
-46 -0 -1 -7 -39 -65 -21 -37 -31 -36 -22 -17 -175 -0 -0 -0 -0 -0 -0 -0 -0 -0 -25 -24 -8 -1 -1 -1 -1 -0 -0 -1 -0 -1 -10 -1 -1 -1 -0 -1 -1 -1 -1
-30 -36 -22 -51 -0 -0 -1 -47 -38 -26 -35 -93 -0 -0 -0 -0 -0 -0 -0 -0 -0 -35 -34 -33 -28 -16 -11 -11 -5 -7 -16 -70 -58 -67 -12 -13 -10 -12 -9 -9 -13 -14 -16
-20 -9 -0 -0 -0 -0 -0 -0 -18 -3 -47 -92 -99 -123 -105 -31 -83 -11 -0 -0 -6 -26 -26 -40 -42 -41 -27 -39 -27 -0 -0 -0 -0 -0 -0 -57 -27 -15 -9 -8 -12 -12 -15
Wind_Speed
12 10 7 7 7 10 9 6 6 7 8 16 21 21 24 19 9 9 3 6 17 24 25 23 24 23 25 25 24 26 26 23 25 28 26 27 27 26 25 20 17 18 18
14 12 10 6 5 7 9 8 8 7 10 11 13 20 21 20 16 10 19 20 20 29 28 26 25 23 24 25 21 24 25 25 27 30 30 29 26 26 26 25 24 22 21
12 13 10 8 6 6 6 7 8 8 8 12 14 18 19 19 20 18 19 23 27 28 31 31 30 30 28 26 20 24 25 27 25 28 31 29 29 29 28 27 26 26 23
14 12 13 10 8 7 6 8 9 8 8 9 10 12 15 16 15 18 20 21 26 29 29 31 32 33 33 33 30 25 28 28 29 30 31 30 29 29 29 31 30 27 28
12 13 12 11 10 8 7 7 8 9 9 9 10 9 9 10 13 14 17 23 27 29 30 32 33 35 36 30 27 26 26 27 28 32 34 34 31 29 28 30 32 33 31
11 14 10 9 9 9 9 8 9 9 8 8 10 10 9 10 10 6 12 18 22 27 32 33 35 35 37 28 12 9 17 24 28 26 30 33 34 33 31 27 30 33 34
9 10 10 12 15 20 23 25 12 10 9 7 11 9 35 17 10 7 6 11 14 18 26 29 33 30 18 18 19 17 16 18 10 15 10 9 10 21 25 23 22 23 26
10 10 11 10 5 23 21 16 17 11 10 8 8 9 9 17 12 7 7 6 6 7 5 23 27 20 9 13 16 21 17 17 15 11 10 15 20 23 23 24 25 25 24
12 10 11 13 12 13 35 19 39 11 10 11 8 8 8 14 12 8 7 8 6 6 4 7 7 7 21 8 6 10 8 13 15 16 16 18 21 24 25 25 25 25 28
23 14 12 14 17 14 19 18 20 31 20 22 21 10 11 13 13 13 9 11 10 6 6 10 14 10 17 9 4 5 5 10 12 14 16 20 23 22 23 22 23 24 25
26 20 13 12 14 10 10 11 35 33 29 25 24 23 22 16 19 11 7 7 11 13 9 13 16 14 12 9 9 9 10 10 13 13 15 18 21 22 22 22 23 21 20
25 24 13 12 12 13 14 14 24 21 22 21 22 24 26 24 22 17 9 9 12 13 12 11 10 10 11 11 13 11 10 10 11 12 14 17 19 20 21 21 21 21 21
26 22 20 15 14 11 9 12 14 14 20 23 23 23 22 19 18 18 14 13 11 12 11 9 8 9 10 13 11 9 9 9 10 11 13 14 16 17 17 18 19 19 20
24 24 23 19 21 22 18 15 16 18 22 21 21 21 19 17 15 16 17 13 12 13 9 7 6 9 12 10 8 8 9 9 10 11 12 13 14 15 16 17 18 17 19
27 25 22 23 17 15 16 18 20 21 24 21 20 18 15 20 23 10 8 9 9 7 5 6 7 8 8 7 7 8 9 9 10 11 11 12 14 14 15 16 16 17 18
30 27 22 19 15 15 14 11 11 16 21 25 22 18 18 23 11 7 7 8 6 1 7 5 7 7 6 5 5 6 8 9 10 9 10 12 13 13 14 14 16 16 19
32 29 24 20 18 16 13 8 9 20 27 30 21 18 13 13 7 4 5 5 1 2 7 7 7 6 4 4 5 7 9 10 10 9 10 11 12 13 13 13 14 15 17
32 31 30 26 22 25 20 14 14 6 4 24 19 11 11 9 6 5 5 5 6 12 9 7 6 5 5 6 8 10 11 10 10 10 11 11 10 11 11 12 13 15 16
34 31 26 35 29 28 25 21 15 9 5 6 15 11 9 8 7 6 4 10 9 10 9 7 6 6 8 9 10 10 9 8 9 9 11 12 11 11 12 13 14 16 17
33 31 27 30 29 25 23 20 14 13 10 9 11 12 8 9 9 8 8 11 11 10 9 8 8 8 7 7 7 7 7 7 8 9 10 11 10 10 12 13 15 16 14
31 31 32 30 29 25 23 21 19 14 13 11 13 17 11 8 8 9 7 9 11 9 7 8 9 7 6 5 4 4 6 8 8 7 8 9 10 11 11 13 15 14 15
31 30 27 27 28 28 28 25 22 18 11 11 11 14 11 11 9 10 10 10 9 9 10 8 7 5 3 3 2 4 6 7 6 6 8 10 11 10 11 12 13 14 15
28 29 28 24 26 28 27 24 22 19 17 16 15 11 14 13 11 11 9 9 11 8 7 6 5 3 1 3 4 5 5 6 8 8 7 7 9 11 12 13 14 15 16
28 28 28 29 28 27 28 27 24 22 21 16 14 13 15 13 11 12 10 9 9 6 5 7 7 5 4 6 8 10 12 14 13 12 12 14 14 14 13 15 17 19 21
28 31 32 33 33 31 28 25 26 23 17 17 18 17 14 10 11 10 9 9 6 4 5 8 9 9 8 10 12 14 18 18 19 21 18 17 15 14 15 16 18 19 20
29 32 32 30 30 29 26 24 21 23 19 22 21 17 14 13 10 9 9 8 6 3 6 8 8 9 9 11 15 17 18 18 19 19 19 19 19 21 21 20 22 22 24
Wind_Direction
182 182 188 186 175 170 172 185 203 194 247 261 264 270 268 276 283 287 245 294 298 285 284 289 293 300 298 299 306 299 294 298 300 298 309 310 312 315 320 327 328 326 325
179 179 184 212 209 183 178 180 185 218 253 261 270 272 272 274 280 286 284 287 293 272 277 286 291 298 301 302 317 306 291 292 295 297 299 305 315 314 315 316 317 318 318
179 186 191 193 222 214 221 197 192 201 236 260 267 272 275 276 278 283 285 285 280 282 276 274 283 281 292 297 313 303 296 293 301 299 301 306 307 311 313 315 315 315 316
177 192 192 202 210 210 225 189 186 203 221 235 250 270 278 281 283 284 286 289 287 281 282 276 279 274 275 273 288 299 294 293 295 298 301 307 309 311 312 309 310 313 313
192 187 192 201 205 211 232 219 196 189 209 230 246 246 267 276 283 284 288 288 287 285 284 282 279 270 266 290 295 299 301 303 302 299 299 302 307 311 313 313 309 308 310
203 198 215 226 233 216 224 228 226 215 221 220 234 244 249 269 276 256 290 295 295 291 284 280 274 273 270 232 224 244 306 306 304 308 304 302 302 306 311 317 314 310 309
223 247 253 260 269 269 269 265 205 234 244 226 193 227 252 276 273 222 262 296 300 305 295 288 282 288 306 308 309 308 306 312 300 310 294 285 261 321 321 322 320 317 315
258 254 237 233 247 270 270 251 198 220 239 232 213 212 258 280 279 245 236 264 267 305 326 287 290 273 275 307 313 308 314 320 323 323 316 325 326 323 323 321 319 317 315
267 245 236 213 205 200 203 205 219 235 249 257 238 247 250 280 276 258 255 276 265 236 228 216 222 289 306 309 228 210 319 326 331 332 334 333 331 329 329 328 326 325 321
274 265 245 219 197 202 202 240 222 259 267 268 271 260 267 276 281 279 270 288 285 270 287 309 311 310 313 322 319 324 326 333 336 338 338 336 335 337 339 339 337 332 331
272 272 256 223 218 236 219 260 252 256 261 268 270 273 278 282 284 277 227 275 290 301 303 308 312 318 319 329 335 336 334 342 343 348 349 347 345 346 349 349 349 351 351
271 270 268 257 252 257 246 224 260 263 265 271 273 274 273 278 282 285 276 290 303 305 308 312 320 323 322 329 330 337 348 355 359 4 359 355 356 357 359 7 11 11 8
272 274 273 273 268 259 219 214 205 248 265 270 274 277 282 286 288 284 283 296 307 307 312 313 319 323 326 328 338 353 3 3 9 11 4 5 5 5 16 12 10 11 9
284 275 274 273 269 263 261 256 256 260 265 273 279 280 279 284 286 278 284 298 305 307 317 322 324 323 322 334 346 356 2 6 8 4 0 5 6 10 9 5 4 4 1
278 280 279 270 267 264 262 263 264 271 274 280 279 281 280 273 267 282 288 292 298 306 318 321 319 320 326 334 343 352 357 3 359 357 354 357 357 1 1 357 357 351 351
271 277 276 274 264 260 256 263 288 293 289 282 281 280 276 269 279 272 283 293 297 287 308 307 309 315 322 332 343 348 350 349 348 350 345 348 350 354 354 353 349 344 342
266 270 274 270 263 254 248 243 268 300 293 275 282 280 278 275 260 246 277 287 239 276 299 295 300 306 312 322 330 330 331 336 341 339 333 336 339 342 345 344 343 343 344
271 266 261 265 261 258 264 267 276 255 235 264 274 273 274 266 247 255 271 287 282 288 294 295 299 306 310 309 311 314 321 327 332 329 326 329 333 335 339 336 337 338 340
270 271 262 258 262 261 265 272 272 259 202 233 259 263 265 264 260 252 226 286 284 286 290 292 294 300 305 310 313 315 317 320 325 326 327 327 328 327 327 325 328 328 330
269 265 264 262 264 261 262 265 261 236 246 243 228 240 236 256 257 253 263 284 287 288 289 288 294 298 303 307 313 314 315 317 320 323 326 330 331 326 322 324 324 326 332
264 262 260 263 264 261 258 259 262 258 250 234 231 250 219 229 249 257 258 271 282 286 286 288 293 292 293 297 302 303 312 318 321 325 331 333 330 328 328 325 325 328 330
259 259 262 261 262 263 258 258 261 254 238 227 225 246 229 256 267 273 276 279 279 284 293 294 293 282 260 273 291 311 314 320 326 327 326 327 331 333 333 332 329 329 328
256 256 261 267 266 264 259 258 253 250 246 242 244 234 241 258 274 279 286 288 290 289 288 291 293 296 287 292 297 300 303 314 318 321 326 330 330 329 329 330 330 329 326
255 259 261 264 264 268 260 255 251 246 244 236 234 237 244 258 274 278 290 295 294 294 291 291 296 300 306 306 304 300 299 302 308 313 314 312 315 319 320 321 320 318 317
255 257 259 262 266 266 260 254 246 240 225 226 233 237 246 261 272 282 289 296 295 293 296 298 301 296 291 299 298 299 301 298 297 302 308 310 309 310 312 315 316 316 314
257 255 259 268 270 269 253 247 223 227 218 224 231 241 254 264 269 279 288 296 295 288 305 305 310 305 307 306 301 300 301 302 301 301 303 306 308 309 311 311 311 311 311